Regional Weather Roundup
Issued by NWS

Home | Current Version | Previous Version | Text Only | Print | Product List | Glossary On
Versions: 1 2 3 4 5 6 7 8 9 10 11 12 13 14 15 16 17 18 19 20 21 22 23 24 25 26 27 28 29 30 31 32 33 34 35 36 37 38 39 40 41 42 43 44 45 46 47 48 49 50
000
ASUS42 KKEY 032310
RWRKEY

FLORIDA REGIONAL WEATHER ROUNDUP FOR THE FLORIDA KEYS
NATIONAL WEATHER SERVICE KEY WEST FLORIDA
700 PM EDT FRI JUL 03 2015

...SOUTH FLORIDA AND THE KEYS...

CITY           SKY/WX    TMP DP  RH WIND       PRES   REMARKS
FORT MYERS     TSTM      73  71  93 S8        30.06S FOG
SW REGIONAL AP TSTM      73  70  90 SW7       30.06S
NAPLES         LGT RAIN  74  73  97 S8        30.06F
MIAMI          PTSUNNY   82  68  62 E8        30.04F
WEST KENDALL   PTSUNNY   85  69  58 E9        30.04F
HOMESTEAD      MOSUNNY   86  75  70 E13       30.04F HX  95
MARATHON       MOSUNNY   88  77  69 E9        30.03F HX 100
BOCA CHICA NAS MOSUNNY   88  75  66 E15       30.03S THUNDER HX  97
KEY WEST INTL  SUNNY     88  79  74 SE13      30.04S HX 103

...INTERNATIONAL WEATHER...

CITY           SKY/WX    TMP DP  RH WIND       PRES   REMARKS
NASSAU BAHAMAS NOT AVBL
CANCUN MEXICO  PTSUNNY   86  77  74 E8        29.98S HX  97
COZUMEL MEXICO MOSUNNY   82  77  83 CALM      29.97R HX  91

ADJACENT COASTAL WATERS...

STATION/POSITION TIME  SKY/WX   TEMP    WIND        PRES    WAVE
                                AIR SEA DIR/SP/G            HT/PER
                 (UTC)          (F)     (DEG/KT/KT) (MB)    (FT/S)
PULASKI SHOAL LI 2200            86     100/  8/  8 1017.1R
SAND KEY         2250            85     100/ 13/ 15 1016.9S
SOMBRERO KEY     2200            86     100/ 15/ 17 1017.8F
LONG KEY         2200            85 89  110/ 12/ 14 1017.8F
MOLASSES REEF    2200            84 86  100/ 10/ 11 1017.3F
FOWEY ROCKS      NOT AVBL

$$


USA.gov is the U.S. government's official web portal to all federal, state and local government web resources and services.